Weather in Polevoe

Russia / Primorsky Krai     45°25′54″N   133°23′02″E
temp.,
°C
wind,
m/s
gust,
m/s
humid.,
%
clouds,
%
prec.,
mm/h
press.,
hPa
HPBL,
m
10 may, mon
mon1001:00+8nw3797100 1.3 1004340
04:00+8nw4796100 2.5 1005426
07:00+7nw3596100 0.4 1007319
10:00+8nw3491100 0.5 1009431
13:00+9nw3582100 0.1 1010663
16:00+10nw4580100 0.4 1010821
19:00+10nnw3582100 0.3 1011354
22:00+8n2286100 0.3 101344
11 may, tue
tue1101:00+8nnw2381100 0.0 101363
04:00+7n259085 0.1 1014119
07:00+7nne258930 0.0 1016198
10:00+11n226798 0.1 10171083
13:00+12n3368100 0.4 1017952
16:00+14wnw225829 0.6 10171339
19:00+14s126311 0.1 1017237
22:00+9se22775 0.1 101813
12 may, wed
wed1201:00+8se338495 0.0 101843
04:00+7s2387100 0.0 101739
07:00+7sse3785100 0.0 1017194
10:00+12s51069100 0.0 1015676
13:00+14s71362100 0.0 10131421
16:00+14sw91766100 0.1 10121892
19:00+10ssw101787100 5.3 10121064
22:00+10ssw8168699 5.4 1013964
13 may, thu
thu1301:00+9ssw715855 0.1 1013668
04:00+8ssw6148919 0.1 1012575
07:00+8ssw6139130 0.0 1012498
10:00+14ssw79745 0.0 1012755
13:00+18sw79580 0.0 10111069
16:00+20sw67525 0.0 10101054
19:00+18sw486794 0.1 1010214
22:00+13ssw51177100 0.1 1011252
14 may, fri
fri1401:00+11s31082100 0.0 1011230
04:00+10s310825 0.0 1011217
07:00+11s37775 0.0 1011172
10:00+17ssw595176 0.0 1010683
13:00+21ssw6942100 0.0 10081392
16:00+21ssw61050100 0.0 10051651
19:00+17sw71468100 0.0 1004566
22:00+14s81794100 3.8 1003728